Dewpoint
4 4 3 2 2 -1 -1 -4 -5 -7 -5 -5 -5 -5 -5 -7 -8 -8 -7 -6 -1 0 0 1 -0 0 -0 -2 -1 1 1 1 3 2 -2 -1 1 3 2 3 2 1 2 1
5 4 4 3 3 1 -0 -4 -5 -5 -4 -6 -7 -7 -9 -8 -7 -7 -7 -6 -3 -2 -1 -0 -1 -0 -2 -2 -1 0 0 2 3 1 -0 -2 2 -0 0 -1 -0 2 3 0
5 4 4 4 3 2 1 -6 -5 -3 -5 -4 -4 -8 -10 -10 -9 -8 -8 -7 -7 -4 -2 -2 -1 -2 -2 -4 -2 -1 0 2 2 2 1 0 1 -0 -1 1 2 2 1 -1
5 5 4 4 3 3 1 -6 -5 -8 -7 -7 -7 -6 -7 -6 -6 -8 -8 -8 -7 -5 -2 -2 -0 -2 -3 -3 -3 -1 0 2 2 1 1 1 2 1 -1 1 2 2 1 -0
4 4 4 4 4 3 2 -3 -5 -7 -7 -7 -6 -7 -7 -6 -6 -7 -7 -6 -7 -5 -2 -1 0 -2 -2 -1 -3 -1 -2 2 2 2 1 1 2 2 1 -1 -1 0 -0 -1
3 3 4 3 3 4 2 -0 -3 -3 -2 -6 -4 -6 -7 -7 -8 -8 -10 -8 -4 -4 -4 -4 -3 -3 -3 -3 -3 -2 -0 1 2 2 1 1 2 2 1 0 -2 -2 -0 -1
2 3 2 2 3 4 3 3 1 -2 0 -2 -3 -5 -7 -7 -7 -6 -8 -8 -5 -6 -4 -2 -2 -2 -3 -3 -3 -3 -1 0 1 2 1 4 -1 -3 -0 0 -0 -3 -3 -4
0 1 2 0 1 3 3 3 2 0 -0 -0 -1 -2 -3 -5 -5 -5 -8 -8 -6 -4 -3 -1 -2 -4 -2 -4 -4 -3 -2 -1 0 2 2 -0 -3 -2 0 2 1 -4 -2 -3
-12 -9 -2 1 1 2 2 2 2 1 -1 -1 -1 -1 -2 -2 -5 -4 -7 -8 -5 -3 -3 -3 -3 -4 -3 -3 -3 -3 -3 -2 -0 -0 2 1 -3 -2 -3 -3 3 -6 -6 -5
-3 -5 -7 -8 -5 -2 -1 0 1 1 -1 -0 -1 -2 -2 -3 -4 -5 -8 -9 -6 -4 -3 -3 -5 -4 -4 -1 -2 -4 -3 -3 -2 -1 1 -2 -4 -5 -3 3 -0 -6 -6 -6
-2 -2 -2 -2 -2 -2 -5 -4 -3 -1 -0 -1 -0 -0 -1 -3 -3 -2 -6 -5 -6 -6 -6 -4 -4 -4 -6 -4 -5 -4 -3 -2 -3 -2 -0 -2 -5 -3 -0 -2 -6 -6 -6 -6
-3 -3 -3 -4 -3 -3 -3 -3 -3 -3 -3 -2 -1 -1 -1 -1 -1 -1 -4 -3 -8 -7 -6 -5 -3 -3 -6 -6 -4 -7 -3 -3 -3 -3 -4 -7 -7 -4 -4 -4 -6 -8 -8 -6
-2 -2 -3 -4 -4 -4 -3 -2 -4 -4 -3 -4 -3 -3 -2 -2 -1 -1 -3 -4 -5 -7 -8 -6 -4 -3 -5 -4 -6 -6 -7 -7 -5 -5 -6 -6 -7 -8 -6 -8 -9 -9 -9 -8
-3 -4 -3 -2 -3 -5 -4 -4 -3 -3 -3 -3 -5 -3 -3 -2 -2 -2 -2 -2 -3 -4 -5 -3 -4 -5 -6 -6 -7 -7 -7 -6 -6 -7 -7 -6 -7 -7 -7 -6 -9 -9 -10 -12
-3 -2 -3 -4 -2 -2 -4 -4 -4 -3 -3 -3 -4 -5 -5 -5 -5 -3 -3 -3 -3 -4 -4 -4 -4 -5 -4 -7 -8 -10 -8 -6 -5 -5 -7 -5 -5 -7 -7 -8 -9 -9 -11 -11
-2 -3 -3 -2 -3 -1 -3 -4 -3 -3 -4 -3 -4 -5 -6 -7 -6 -5 -5 -5 -4 -3 -4 -4 -4 -4 -3 -4 -7 -9 -10 -10 -10 -7 -8 -8 -8 -7 -7 -8 -9 -10 -10 -10
-4 -3 -3 -2 -2 -1 -2 -5 -5 -3 -4 -4 -6 -6 -8 -8 -7 -7 -6 -5 -4 -4 -4 -5 -5 -6 -4 -5 -6 -10 -11 -11 -10 -10 -10 -8 -8 -8 -8 -9 -10 -10 -10 -10
-2 -3 -3 -2 -2 -2 -2 -3 -3 -3 -4 -4 -6 -8 -9 -8 -7 -7 -7 -6 -5 -5 -5 -6 -6 -6 -6 -5 -12 -13 -12 -11 -10 -10 -11 -10 -10 -8 -8 -8 -9 -9 -10 -11
-2 -3 -3 -2 -2 -3 -3 -5 -6 -4 -4 -5 -6 -6 -8 -8 -8 -8 -7 -7 -7 -6 -6 -6 -6 -7 -6 -13 -15 -14 -14 -14 -14 -12 -11 -10 -10 -11 -11 -11 -11 -11 -11 -12
-1 -2 -2 -3 -4 -5 -6 -5 -5 -4 -4 -4 -7 -8 -9 -9 -9 -8 -7 -8 -7 -7 -7 -7 -6 -9 -14 -14 -14 -14 -14 -14 -14 -13 -13 -12 -11 -11 -11 -12 -13 -13 -13 -13
-2 -2 -3 -4 -5 -6 -5 -5 -7 -7 -10 -6 -8 -8 -8 -8 -8 -7 -8 -8 -8 -8 -8 -7 -8 -9 -13 -14 -14 -14 -14 -14 -14 -13 -14 -13 -13 -12 -13 -13 -13 -13 -12 -13
-2 -2 -4 -5 -5 -6 -11 -14 -10 -10 -8 -7 -9 -8 -8 -8 -8 -8 -8 -7 -7 -6 -9 -9 -9 -12 -15 -15 -15 -14 -15 -14 -14 -14 -13 -13 -13 -13 -13 -13 -12 -12 -12 -12
-2 -3 -4 -6 -8 -10 -10 -9 -11 -10 -9 -8 -8 -10 -8 -8 -8 -9 -9 -9 -9 -9 -10 -9 -12 -14 -15 -15 -15 -15 -15 -15 -15 -15 -15 -15 -14 -14 -14 -14 -13 -12 -12 -13
-3 -4 -6 -10 -10 -11 -9 -9 -10 -9 -7 -7 -8 -9 -9 -8 -10 -10 -9 -10 -10 -10 -10 -10 -13 -15 -15 -15 -15 -15 -15 -15 -15 -15 -14 -15 -15 -16 -16 -16 -15 -13 -13 -13
-4 -5 -6 -9 -10 -7 -8 -8 -7 -7 -7 -8 -9 -10 -9 -11 -10 -11 -11 -10 -10 -10 -10 -12 -15 -15 -15 -15 -15 -15 -15 -15 -15 -15 -15 -15 -15 -14 -14 -14 -14 -14 -14 -13
-4 -5 -8 -8 -8 -7 -7 -8 -7 -7 -7 -7 -8 -14 -12 -11 -11 -10 -10 -9 -10 -12 -14 -16 -16 -16 -16 -16 -16 -16 -16 -16 -15 -15 -15 -15 -15 -15 -15 -15 -14 -14 -14 -14
-5 -8 -6 -8 -6 -6 -7 -7 -7 -7 -7 -10 -15 -11 -11 -14 -13 -13 -14 -14 -15 -16 -17 -17 -17 -17 -16 -16 -16 -16 -16 -16 -16 -16 -16 -16 -16 -16 -15 -15 -16 -15 -15 -15
Wind_Speed
16 15 14 13 18 17 14 8 2 2 6 0 1 2 3 2 3 3 3 2 2 4 4 4 3 4 5 0 1 2 2 2 4 9 2 3 1 3 3 2 2 2 2 4
16 15 13 12 15 17 19 12 2 3 7 1 2 4 3 3 3 4 3 4 5 2 4 3 5 3 2 1 1 2 1 3 3 5 5 3 3 3 3 3 1 3 3 4
16 14 14 13 13 13 13 5 2 1 6 3 2 2 3 3 3 3 4 2 2 3 3 3 4 3 2 1 3 3 1 3 5 5 2 1 3 4 6 6 3 3 5 4
17 15 15 15 15 12 7 2 3 3 3 4 2 1 2 4 4 6 7 2 7 5 4 2 5 4 4 2 2 1 2 4 3 5 8 5 7 5 5 9 10 8 6 11
16 17 16 15 15 15 9 5 4 2 3 3 4 2 5 5 4 5 5 5 2 7 6 7 7 5 4 5 2 0 1 3 2 6 7 9 12 9 9 10 12 10 8 10
16 18 15 15 17 21 10 9 12 5 8 4 3 4 7 6 4 8 5 7 3 4 15 10 11 7 3 3 5 3 2 2 2 4 3 4 6 13 16 9 7 9 12 13
18 18 16 18 16 20 22 21 13 7 6 8 6 5 8 9 9 6 3 10 6 5 4 4 5 7 9 9 9 7 3 2 2 3 2 5 4 1 5 11 8 10 3 3
20 20 19 17 18 16 26 26 22 10 4 8 4 11 6 11 11 6 8 12 7 7 5 2 4 3 3 5 6 10 7 2 3 3 4 7 11 1 4 5 1 3 2 2
17 19 23 20 16 18 21 15 25 16 4 8 10 3 8 5 4 2 6 5 10 11 2 2 4 4 4 3 2 2 6 4 3 2 4 6 4 1 2 2 3 3 3 2
15 15 14 15 20 23 24 22 16 19 9 15 14 6 5 6 3 2 1 6 4 11 3 3 3 3 1 3 4 4 4 2 10 6 4 6 6 4 1 3 2 2 3 2
16 15 15 15 13 12 12 13 16 18 15 28 25 23 15 7 6 4 7 5 2 2 3 4 4 4 4 2 3 5 6 6 3 4 3 7 1 1 4 2 4 2 2 3
16 14 15 14 14 13 11 8 9 12 18 21 27 28 26 32 29 16 20 3 6 10 3 3 2 3 1 2 3 1 3 6 5 8 5 2 3 1 5 3 3 6 6 3
16 15 15 13 11 13 13 15 14 13 12 23 18 17 18 25 32 33 10 9 11 8 6 3 2 4 3 4 5 2 4 3 2 1 4 6 12 15 12 12 14 9 7 9
19 18 18 16 15 14 14 18 16 15 10 5 4 6 7 12 16 23 29 27 17 13 14 4 2 3 6 3 0 3 2 4 4 4 7 11 17 24 20 19 12 7 6 4
19 18 18 20 20 17 17 18 21 18 15 4 9 24 23 16 17 18 21 28 19 12 6 3 3 2 2 1 1 2 5 3 3 7 4 6 7 7 8 7 8 7 6 7
20 20 20 17 17 18 14 5 6 4 3 6 3 5 8 10 7 6 10 15 21 10 6 3 5 6 7 2 3 2 9 11 12 7 18 18 19 20 17 14 12 11 12 12
23 20 20 19 15 17 13 6 6 9 12 5 4 3 4 4 4 2 1 9 7 5 5 5 5 3 7 1 3 3 14 16 9 10 17 6 5 6 7 8 10 9 9 9
23 20 19 18 17 16 18 20 22 15 7 6 2 3 2 2 3 2 2 1 3 5 4 4 2 5 2 4 4 14 17 19 8 12 16 14 13 10 10 9 10 10 10 11
19 16 15 17 16 9 9 9 10 9 10 3 2 1 3 2 2 2 1 1 0 2 1 1 5 2 2 5 9 16 16 14 20 23 16 6 4 6 7 8 9 12 13 12
15 13 7 4 4 6 4 1 2 5 5 5 1 1 2 1 3 2 1 2 1 0 1 3 1 2 5 15 11 12 14 13 13 17 12 14 10 10 10 10 10 12 11 8
6 4 4 5 5 2 2 1 2 2 3 0 1 4 1 3 1 1 2 1 0 1 1 1 0 2 3 16 14 12 13 12 9 8 8 9 10 10 10 8 9 9 6 2
7 6 5 3 2 1 4 2 3 1 3 2 2 2 2 1 2 1 1 0 1 1 1 1 1 2 11 14 15 13 14 12 9 6 5 6 7 8 8 8 8 8 8 5
9 3 3 2 0 4 4 3 3 2 4 5 4 1 1 1 2 1 1 1 2 0 2 1 2 7 12 13 13 12 13 12 11 10 10 9 9 8 8 9 9 9 7 5
3 3 3 3 3 4 4 4 3 3 3 8 5 2 1 0 2 1 2 1 1 2 2 2 2 10 11 11 12 12 12 12 13 13 13 13 13 13 13 13 13 10 10 10
4 3 4 5 6 2 1 6 5 4 6 7 4 3 0 1 2 2 3 3 1 1 2 2 8 9 10 11 12 11 11 11 11 11 12 13 14 15 15 15 15 15 13 12
3 4 1 3 0 2 3 4 3 8 9 6 2 2 3 1 2 2 1 1 1 2 2 6 7 8 9 10 10 10 9 9 9 10 11 11 12 14 14 14 15 16 16 16
3 3 6 5 3 1 3 4 4 12 9 2 3 3 5 1 2 2 3 2 2 2 3 5 6 7 8 8 7 7 8 8 9 9 9 10 9 8 9 13 15 14 15 15
Wind_Direction
318 323 329 342 334 340 341 336 6 214 171 124 45 216 231 292 231 225 251 274 240 204 211 189 232 248 216 97 289 222 186 246 258 223 278 216 201 199 122 125 264 181 116 278
313 314 321 325 329 334 335 328 289 227 196 156 279 272 273 239 195 215 204 246 209 142 232 265 215 241 229 286 294 210 321 236 307 340 17 359 213 210 151 91 54 228 87 263
302 308 316 311 303 324 341 314 353 193 206 236 186 297 278 296 232 255 215 245 142 142 227 231 290 273 279 231 203 282 303 252 225 207 160 120 211 211 195 168 156 211 219 258
292 296 304 305 289 297 325 274 257 213 269 266 191 200 207 235 256 209 202 268 225 185 211 228 238 240 292 236 318 147 159 267 261 252 260 257 233 236 228 220 222 211 204 219
293 299 287 296 289 280 264 247 209 236 247 245 174 197 241 217 269 157 236 207 221 190 210 215 252 198 189 248 340 185 339 265 304 282 245 227 247 238 222 221 241 249 267 251
287 284 282 288 283 279 241 225 241 230 216 154 149 223 218 225 163 239 220 208 142 202 238 264 272 237 210 220 185 196 222 225 217 261 322 329 286 207 220 222 196 201 234 243
284 279 275 286 276 281 274 268 239 197 250 202 195 212 208 225 203 226 252 205 164 216 288 305 283 271 267 242 234 227 195 210 258 261 358 248 242 219 208 230 253 227 314 50
281 282 278 274 281 282 278 259 264 228 261 211 210 245 228 266 258 235 228 218 221 195 151 268 322 307 299 257 217 208 213 172 273 262 229 319 308 200 157 176 219 351 225 115
295 284 272 270 274 278 282 282 269 251 272 205 255 215 210 216 208 255 217 225 171 156 150 140 216 231 223 277 313 190 182 239 212 159 248 232 258 33 347 18 251 356 82 69
330 326 315 293 277 273 277 273 299 250 251 270 246 202 204 195 189 193 191 168 154 171 155 167 205 249 200 222 205 181 152 172 223 232 269 288 264 275 104 164 181 108 99 64
332 331 336 334 338 332 320 288 277 265 271 279 275 252 237 206 203 205 150 127 165 132 177 186 200 215 223 181 194 180 174 169 188 178 230 264 225 152 181 169 138 101 144 149
338 341 336 331 321 318 324 321 310 294 271 267 275 273 265 270 265 232 178 223 166 172 154 213 160 220 201 211 238 311 228 191 181 197 210 243 311 266 132 114 317 316 300 292
301 308 313 324 328 327 304 298 301 301 280 293 271 275 291 264 249 251 203 218 199 203 220 158 157 221 148 190 236 181 256 173 214 73 264 240 277 280 265 295 299 293 305 299
302 288 291 294 299 300 292 292 297 288 267 272 309 303 313 283 263 245 242 242 211 190 183 211 171 185 191 219 160 181 217 144 202 264 290 289 289 283 294 299 264 259 266 292
307 313 304 290 292 288 290 291 289 280 245 275 296 297 289 285 264 255 245 239 219 184 170 196 214 153 145 104 81 236 208 210 188 261 357 287 279 315 321 280 254 241 230 256
304 301 294 298 288 283 292 291 210 102 136 289 304 276 293 327 319 268 245 239 215 196 174 185 211 175 164 190 215 280 11 359 1 309 311 302 295 287 281 272 254 239 255 271
292 284 288 286 283 275 276 244 249 271 304 272 297 283 339 10 26 45 144 204 209 193 190 201 148 181 192 156 222 323 349 343 338 348 331 317 15 345 323 292 275 276 275 272
306 294 280 283 283 271 264 266 259 263 256 240 274 280 334 351 15 21 115 182 184 197 202 152 160 150 169 238 68 352 345 334 273 314 334 321 323 309 299 300 295 289 290 289
307 295 281 289 255 250 241 247 248 224 211 230 197 190 280 14 9 353 54 209 225 308 209 183 168 137 212 9 327 344 348 341 316 323 334 325 5 9 348 337 316 303 299 288
291 286 270 244 216 218 286 201 181 193 207 234 164 171 290 9 355 321 312 5 321 303 267 145 249 85 113 14 354 334 340 336 328 330 337 343 343 343 334 333 336 331 315 306
263 242 230 219 211 255 201 174 84 328 348 264 171 204 260 225 203 268 230 241 289 33 268 242 97 84 6 354 1 356 355 347 336 323 331 344 351 356 357 353 349 349 340 313
227 237 220 177 171 147 87 262 322 124 231 201 171 197 230 238 225 266 257 190 45 259 45 68 95 26 355 1 7 8 11 13 10 10 352 5 9 8 8 4 5 8 12 7
221 231 177 153 353 34 141 225 289 275 193 187 175 293 225 183 221 33 78 73 236 97 41 52 61 351 6 9 13 21 25 30 35 39 41 39 38 34 32 32 30 26 20 32
239 195 248 165 255 251 189 184 181 167 161 164 150 122 156 160 55 16 91 280 60 50 24 53 32 5 8 15 19 23 26 31 38 42 46 50 51 52 53 49 48 48 58 62
235 185 239 218 244 302 166 161 136 136 148 144 119 91 124 358 74 40 87 33 320 108 61 61 11 9 14 19 21 26 30 33 38 44 48 51 53 53 56 54 54 57 64 71
242 227 277 233 225 220 189 173 155 165 157 138 118 110 62 313 125 69 336 131 70 67 33 2 3 11 14 16 19 23 26 31 37 43 48 52 51 52 57 58 58 57 59 63
237 265 242 231 284 225 163 167 167 173 164 181 125 111 207 92 62 53 15 85 61 4 14 7 9 7 10 13 17 25 31 37 42 42 46 50 54 59 63 59 57 55 53 54
Height
1493 1490 1489 1486 1485 1483 1481 1477 1476 1475 1475 1478 1479 1480 1469 1468 1467 1467 1466 1465 1464 1463 1464 1461 1464 1458 1453 1449 1449 1449 1448 1449 1440 1428 1420 1419 1420 1420 1422 1427 1428 1440 1435 1419
1490 1488 1487 1484 1482 1481 1480 1477 1476 1475 1476 1483 1482 1471 1468 1466 1466 1465 1466 1465 1463 1463 1464 1464 1456 1451 1447 1448 1449 1449 1447 1443 1445 1433 1430 1424 1423 1423 1423 1428 1431 1425 1429 1416
1487 1486 1485 1483 1480 1479 1479 1478 1480 1476 1475 1474 1474 1471 1466 1466 1464 1464 1462 1461 1460 1461 1463 1462 1456 1453 1447 1445 1446 1446 1446 1443 1434 1428 1423 1426 1425 1424 1426 1423 1435 1431 1420 1411
1483 1482 1481 1480 1478 1477 1478 1477 1475 1473 1478 1472 1471 1470 1469 1466 1462 1460 1461 1461 1460 1460 1464 1460 1458 1454 1450 1445 1444 1444 1445 1441 1436 1431 1428 1427 1425 1422 1422 1422 1414 1414 1414 1411
1477 1477 1477 1476 1474 1474 1474 1473 1472 1472 1469 1469 1469 1468 1468 1465 1459 1460 1458 1458 1452 1458 1461 1449 1449 1450 1450 1447 1445 1444 1445 1439 1437 1428 1422 1422 1418 1417 1417 1416 1412 1411 1409 1404
1472 1471 1471 1471 1470 1468 1465 1465 1466 1465 1463 1464 1468 1464 1457 1455 1457 1452 1451 1452 1454 1454 1449 1448 1447 1447 1445 1445 1446 1446 1444 1439 1435 1429 1421 1421 1418 1407 1403 1397 1400 1400 1402 1390
1466 1465 1464 1465 1465 1462 1462 1459 1459 1460 1450 1455 1455 1452 1451 1449 1449 1452 1448 1448 1447 1447 1447 1448 1446 1445 1444 1444 1442 1443 1441 1440 1435 1425 1425 1417 1392 1393 1395 1395 1392 1395 1392 1392
1461 1460 1459 1459 1460 1457 1454 1452 1454 1451 1443 1444 1447 1446 1447 1447 1444 1445 1443 1441 1442 1442 1446 1447 1447 1447 1442 1437 1436 1438 1440 1439 1435 1426 1420 1408 1390 1390 1392 1393 1394 1399 1395 1397
1453 1453 1453 1453 1452 1451 1450 1449 1450 1447 1441 1436 1439 1440 1441 1440 1442 1441 1438 1440 1439 1440 1444 1446 1447 1438 1433 1437 1439 1436 1437 1439 1436 1434 1423 1420 1398 1392 1392 1391 1393 1396 1396 1396
1450 1448 1446 1445 1445 1445 1444 1445 1445 1442 1435 1430 1433 1433 1433 1434 1435 1434 1435 1436 1439 1439 1441 1445 1449 1437 1433 1428 1434 1438 1435 1437 1434 1432 1423 1417 1399 1395 1395 1397 1400 1397 1397 1397
1449 1447 1445 1442 1441 1440 1439 1439 1439 1440 1431 1424 1424 1424 1426 1427 1429 1426 1431 1435 1436 1439 1443 1438 1434 1435 1428 1427 1427 1427 1424 1426 1432 1430 1427 1426 1397 1396 1397 1398 1397 1397 1398 1398
1447 1445 1443 1441 1440 1439 1437 1436 1435 1434 1431 1420 1418 1417 1419 1419 1420 1421 1421 1419 1421 1421 1429 1430 1425 1428 1434 1425 1419 1422 1420 1412 1416 1413 1404 1396 1396 1397 1396 1395 1396 1396 1396 1395
1443 1442 1440 1439 1437 1436 1434 1432 1431 1429 1423 1412 1409 1408 1408 1407 1410 1411 1413 1414 1413 1414 1415 1416 1417 1419 1419 1420 1421 1415 1412 1408 1413 1408 1395 1394 1395 1396 1395 1394 1393 1393 1392 1392
1439 1437 1435 1434 1433 1432 1430 1427 1426 1425 1422 1415 1407 1405 1404 1404 1404 1404 1405 1406 1406 1408 1411 1411 1411 1416 1409 1413 1409 1413 1407 1407 1406 1407 1397 1392 1392 1393 1393 1393 1392 1392 1391 1390
1435 1433 1430 1429 1428 1426 1425 1423 1420 1419 1421 1412 1405 1403 1398 1397 1397 1399 1400 1402 1402 1404 1406 1405 1406 1406 1408 1410 1411 1416 1403 1401 1404 1394 1392 1392 1390 1391 1390 1389 1389 1390 1389 1389
1430 1428 1426 1424 1423 1420 1420 1417 1416 1415 1414 1413 1405 1399 1394 1394 1393 1394 1394 1395 1397 1398 1399 1400 1400 1399 1402 1406 1412 1402 1401 1401 1400 1396 1392 1390 1389 1388 1387 1387 1387 1387 1386 1386
1423 1421 1420 1419 1417 1416 1416 1415 1413 1412 1412 1411 1404 1396 1394 1393 1393 1393 1394 1394 1394 1395 1396 1397 1397 1399 1399 1399 1404 1402 1398 1398 1397 1394 1389 1386 1385 1385 1385 1383 1383 1383 1383 1383
1415 1412 1412 1412 1411 1411 1410 1408 1407 1408 1408 1407 1403 1397 1396 1395 1394 1393 1393 1394 1394 1394 1393 1395 1396 1398 1398 1395 1402 1400 1397 1394 1392 1392 1392 1389 1384 1383 1383 1382 1381 1380 1380 1380
1409 1408 1407 1407 1405 1404 1402 1403 1402 1403 1407 1402 1399 1401 1402 1397 1396 1396 1395 1394 1395 1394 1392 1393 1395 1396 1395 1405 1403 1402 1399 1397 1393 1389 1387 1385 1384 1383 1382 1380 1380 1378 1377 1376
1404 1404 1405 1400 1400 1400 1401 1399 1401 1400 1399 1398 1397 1399 1399 1399 1397 1396 1397 1395 1394 1395 1395 1394 1393 1398 1406 1406 1405 1403 1399 1395 1393 1389 1386 1383 1381 1381 1380 1379 1378 1376 1374 1372
1401 1400 1399 1398 1398 1400 1399 1398 1399 1399 1398 1396 1396 1397 1397 1397 1398 1396 1396 1396 1396 1398 1397 1395 1396 1400 1408 1406 1404 1401 1397 1395 1393 1391 1389 1386 1384 1381 1380 1379 1376 1375 1374 1373
1397 1398 1397 1397 1398 1398 1400 1406 1401 1399 1398 1395 1395 1396 1396 1396 1396 1396 1396 1396 1396 1393 1397 1399 1400 1411 1410 1406 1404 1401 1398 1395 1393 1391 1389 1387 1384 1382 1380 1379 1377 1376 1374 1373
1394 1396 1395 1395 1398 1404 1405 1404 1403 1401 1391 1392 1393 1396 1396 1396 1396 1396 1397 1399 1401 1398 1402 1403 1412 1413 1411 1408 1405 1403 1401 1398 1396 1393 1390 1388 1385 1384 1382 1381 1379 1377 1376 1374
1395 1394 1395 1397 1401 1395 1388 1387 1387 1388 1388 1390 1392 1394 1396 1396 1397 1397 1399 1401 1400 1404 1408 1408 1415 1414 1412 1410 1408 1405 1403 1401 1399 1396 1394 1391 1388 1386 1384 1383 1381 1380 1378 1376
1393 1392 1391 1393 1386 1385 1383 1383 1385 1387 1388 1390 1393 1395 1396 1397 1398 1400 1401 1404 1405 1406 1406 1414 1417 1415 1413 1411 1409 1407 1406 1404 1402 1400 1397 1395 1392 1390 1389 1387 1386 1384 1382 1381
1391 1388 1387 1385 1385 1384 1383 1384 1385 1386 1388 1391 1393 1397 1400 1401 1401 1401 1402 1401 1404 1413 1417 1418 1417 1415 1413 1412 1410 1408 1407 1405 1404 1402 1400 1398 1396 1395 1393 1392 1390 1389 1387 1385
1387 1383 1382 1383 1382 1381 1382 1383 1384 1386 1388 1391 1393 1399 1397 1400 1405 1409 1412 1415 1417 1419 1419 1418 1417 1415 1414 1412 1411 1409 1408 1407 1405 1404 1402 1401 1400 1399 1397 1395 1394 1393 1392 1390